Home > Weather > Manassas > Past weeks

Flag for U.S.A. Weather for the Past 2 Weeks in Manassas, Virginia, U.S.A.

Now
37 °F

Overcast.


Feels Like: 33 °F
Forecast: 32 / 39 °F
Wind: 6 mph from South

Location: Manassas Municipal

Current Time: Feb 9, 2016 at 2:11:47 AM

Latest Report: Feb 9, 2016 at 1:15 AM


Visibility: 9 mi

Pressure: 29.62 "Hg

Humidity: 93%

Dew point: 36 °F

Location of ManassasLocation

Historic Weather in Manassas — Graph

°F

Manassas Temperature Yesterday

Maximum temperature yesterday: 46 °F (at 12:45 PM)
Minimum temperature yesterday: 25 °F (at 5:15 AM)
Average temperature yesterday: 36 °F

High & Low Weather Summary for the Past Weeks

 TemperatureHumidityPressure
High63 °F (Jan 31, 1:45 PM)100% (Jan 25, 2:15 AM)30.47 "Hg (Jan 25, 2:15 AM)
Low3 °F (Jan 25, 2:15 AM)30% (Jan 31, 1:45 PM)29.57 "Hg (Jan 29, 4:15 AM)
Average34 °F79%30.05 "Hg
* Reported Jan 25 12:15 AM — Feb 9 12:55 AM, Manassas, Weather by CustomWeather, © 2016

Note: Actual official high and low records may vary slightly from our data, if they occured in-between our weather recording intervals... More about our weather records

Advertising

Manassas Weather History for the Previous 24 Hours

 ConditionsComfort  
Time TempWeatherWind HumidityBarometerVisibility
12:55 AM
Tue, Feb 9
37 °FOvercast.3 mph100%29.63 "Hg10 mi
12:35 AM37 °FOvercast.6 mph93%29.63 "Hg10 mi
11:55 PM
Mon, Feb 8
37 °FOvercast.5 mph93%29.64 "Hg10 mi
11:35 PM37 °FOvercast.8 mph93%29.65 "Hg10 mi
10:55 PM37 °FOvercast.10 mph87%29.66 "Hg10 mi
10:35 PM37 °FMostly cloudy.9 mph87%29.67 "Hg10 mi
9:50 PM39 °FMostly cloudy.7 mph81%29.68 "Hg10 mi
8:50 PM39 °FMostly cloudy.7 mph81%29.68 "Hg10 mi
7:50 PM41 °FMostly cloudy.9 mph70%29.70 "Hg10 mi
5:45 PM43 °FOvercast.5 mph61%29.68 "Hg10 mi
4:45 PM45 °FScattered clouds.7 mph53%29.67 "Hg10 mi
3:50 PM46 °FOvercast.7 mph46%29.67 "Hg10 mi
2:45 PM46 °FPassing clouds.5 mph43%29.68 "Hg10 mi
1:50 PM46 °FSunny.7 mph46%29.69 "Hg10 mi
12:45 PM46 °FSunny.3 mph50%29.71 "Hg10 mi
11:45 AM45 °FSunny.3 mph49%29.76 "Hg10 mi
10:45 AM43 °FSunny.3 mph49%29.79 "Hg10 mi
9:50 AM43 °FSunny.5 mph46%29.79 "Hg10 mi
7:45 AM39 °FSunny.No wind56%29.82 "Hg10 mi
6:45 AM41 °FClear.No wind45%29.82 "Hg10 mi
6:15 AM25 °FClear.No wind93%29.82 "Hg10 mi
5:55 AM25 °FClear.No wind93%29.81 "Hg10 mi
5:35 AM27 °FClear.No wind93%29.79 "Hg10 mi
5:15 AM25 °FClear.No wind100%29.78 "Hg10 mi
4:55 AM27 °FClear.No wind86%29.79 "Hg10 mi
4:35 AM32 °FClear.3 mph69%29.79 "Hg10 mi
4:15 AM34 °FClear.5 mph60%29.79 "Hg10 mi
3:55 AM32 °FClear.5 mph69%29.79 "Hg10 mi
3:35 AM34 °FClear.6 mph65%29.78 "Hg10 mi
3:15 AM34 °FClear.6 mph65%29.78 "Hg10 mi
2:55 AM32 °FClear.8 mph69%29.79 "Hg10 mi
2:35 AM32 °FClear.9 mph75%29.79 "Hg10 mi
2:15 AM34 °FClear.5 mph65%29.80 "Hg10 mi
Weather by CustomWeather, © 2016

See weather overviewHow to use our weather pages